Location: Coupvray
(48.8929°N, 2.7967°E)
Time: 09:31:15
(UTC+00:00)

Altair 2 - Pass Details

Date: 22 January 2021
Orbit: 837 x 949 km, 90.2° (Epoch: 26 February)

Event Time Altitude Azimuth Distance (km) Brightness Sun altitude
Rises 06:03:58 0° 2° (N) 3,448 10.8 -14.1°
Reaches altitude 10° 06:06:21 10° 3° (N) 2,520 10.1 -13.7°
Maximum altitude 06:12:02 83° 92° (E) 897 7.9 -12.8°
Drops below altitude 10° 06:17:51 10° 181° (S) 2,577 10.4 -11.9°
Sets 06:20:18 0° 182° (S) 3,531 11.1 -11.5°
